ARIANE 44LP DEB, 33545

Orbit data source: Space-Track

ARIANE 44LP DEB, 33545 is space debris in HEO originally from a launch on Sun, 11 Dec 1988 UTC launched from the French Guiana (FRGUI). Debris objects in space refer to the collection of defunct objects orbiting the Earth. Examples of debris include non-operational satellites, rocket bodies, and fragments generated from explosions, collisions, or faulty payload assembly.

Loading next visibility...
Identifier
33545, 1988-109U
Orbit
HEO
Country
Flag of FRFR
Related business
Manufacturer
Unknown
Mission
Spacecraft
Bus & Motor
Unknown
Mass
Unknown
Launch date (UTC)
1988-12-11 (37 years ago)
Launch vehicle
Unknown
Launch site
French Guiana (FRGUI)
Object type
Payload
Rocket body
Debris
Shape & HBR
Unknown shape, 0.3 m
Radar Cross Section
Medium (>0.1 m² and <1 m²)

Expand to show TLE details & history
Last TLE update: 4 months ago

TLE from 4 months ago
0 ARIANE 44LP DEB
1 33545U 88109U   25205.60089755  .00000016  00000-0  64305-3 0  9998
2 33545   6.4979 200.1691 7127386 131.1428 316.5564  2.38228893196843
Epoch: 2025-07-24T14:25Z
TLE epoch observation values (Epoch: 2025-07-24T14:25:17.548Z)
Latitude
-0.00001°
Longitude
41.29831°
Altitude
15,500.944 km
Speed
4.427 km/s
True Right ascension
13h 20m 44s
True Declination
0° 00' 00"
Sunlit
Object was in daylight at epoch
Visualization orbit readout
Latitude
Unknown
Longitude
Unknown
Altitude
Unknown
Speed
Unknown
Apparent Right ascension
Unknown
Apparent Declination
Unknown
Sunlit
N/A
Visualization observer readout
Local Sidereal Time
00:05:51
Azimuth
Unknown
Elevation
Unknown
Doppler factor
Unknown
Orbital elements
Apogee altitude
34,190.82 km
Perigee altitude
426.109 km
Semi-major axis
23,686.602 km
Eccentricity
0.71274
Inclination
6.4979°
RAAN
200.1691°
Arg. of periapsis
131.1428°
True anomaly
228.8691°
Mean anomaly
316.5564°
Eccentric anomaly
275.93865°
Mean motion
0.59537 °/min
Orbital period
604.66 mins
BSTAR
0.00064305
Loading maneuver chart data...
Computing Atmospheric mass density...
Loading historical data...
Loading historical data...
Loading historical data...
Loading historical data...
Loading historical data...
Loading historical data...
Loading historical data...

Documentation

Showing up to 5 results
|